Weather History for Pocatello, ID

Change the Weather History Date:

Friday, September 12, 2014

  Actual Average Record
Temperature  
Mean Temperature 48 °F 60 °F  
Max Temperature 72 °F 78 °F 94 °F (1953)
Min Temperature 24 °F 43 °F 24 °F (2014)
Degree Days  
Heating Degree Days 17 5  
Month to date heating degree days 74 45  
Since 1 July heating degree days 109 91  
Cooling Degree Days 0 1  
Month to date cooling degree days 4 17  
Year to date cooling degree days 390 387  
Moisture  
Dew Point 20 °F    
Average Humidity 47    
Maximum Humidity 81    
Minimum Humidity 13    
Precipitation  
Precipitation 0.00 in 0.02 in 1.46 in (1942)
Month to date precipitation 0.00 0.31  
Year to date precipitation 8.78 8.38  
Snow  
Snow 0.00 in - - ()
Month to date snowfall 0.0  
Since 1 July snowfall 0.0  
Since 1 September snowfall 0.0  
Snow Depth 0.00 in    
Sea Level Pressure  
Sea Level Pressure 30.22 in    
Wind  
Wind Speed 5 mph (NW)    
Max Wind Speed 12 mph    
Max Gust Speed 15 mph    
Visibility 10 miles    
Events      
T = Trace of Precipitation, MM = Missing Value Source: NWS Daily Summary

Daily Weather History Graph

Daily Weather History Graph

Search for Another Location

Airport:

Trip Planner

Search our weather history database for the weather conditions in past years. The results will help you decide how hot, cold, wet, or windy it might be!

Date:

Astronomy

Sep. 12, 2014 Rise Set
Actual Time 7:06 AM MDT 7:45 PM MDT
Civil Twilight 6:38 AM MDT 8:13 PM MDT
Nautical Twilight 6:04 AM MDT 8:47 PM MDT
Astronomical Twilight 5:29 AM MDT 9:22 PM MDT
Moon 10:01 PM MDT (9/12) 11:21 AM MDT (9/12)
Length of Visible Light 13h 35m
Length of Day
12h 38m
Waning Gibbous, 82% of the Moon is Illuminated
Sep 12
Waning Gibbous
Sep 15
Last Quarter
Sep 24
New
Oct 1
First Quarter
Oct 8
Full

Hourly Weather History & Observations

Time (MDT) Temp. Windchill Dew Point Humidity Pressure Visibility Wind Dir Wind Speed Gust Speed Precip Events Conditions
12:53 AM 34.0 °F - 21.0 °F 59% 30.32 in 10.0 mi Calm Calm - N/A   Clear
1:53 AM 30.0 °F - 19.9 °F 66% 30.33 in 10.0 mi Calm Calm - N/A   Clear
2:53 AM 28.4 °F 22.2 °F 19.4 °F 69% 30.33 in 10.0 mi West 5.8 mph - N/A   Clear
3:53 AM 28.9 °F 23.9 °F 19.9 °F 69% 30.33 in 10.0 mi West 4.6 mph - N/A   Clear
4:53 AM 28.0 °F - 21.0 °F 75% 30.33 in 10.0 mi Calm Calm - N/A   Clear
5:53 AM 26.1 °F 19.4 °F 19.9 °F 78% 30.34 in 10.0 mi WSW 5.8 mph - N/A   Clear
6:53 AM 25.0 °F 18.1 °F 19.0 °F 78% 30.34 in 10.0 mi SW 5.8 mph - N/A   Clear
7:53 AM 28.9 °F - 21.0 °F 72% 30.35 in 10.0 mi Calm Calm - N/A   Clear
8:53 AM 37.0 °F 32.4 °F 23.0 °F 57% 30.34 in 10.0 mi NNE 5.8 mph - N/A   Clear
9:53 AM 46.9 °F - 25.0 °F 42% 30.33 in 10.0 mi ENE 4.6 mph - N/A   Clear
10:53 AM 52.0 °F - 23.0 °F 32% 30.31 in 10.0 mi Variable 3.5 mph - N/A   Clear
11:53 AM 57.9 °F - 21.0 °F 24% 30.30 in 10.0 mi Variable 4.6 mph - N/A   Clear
12:53 PM 62.1 °F - 19.0 °F 19% 30.25 in 10.0 mi East 8.1 mph - N/A   Clear
1:53 PM 66.0 °F - 19.0 °F 17% 30.22 in 10.0 mi ENE 6.9 mph - N/A   Clear
2:53 PM 69.1 °F - 18.0 °F 14% 30.18 in 10.0 mi NNE 8.1 mph - N/A   Clear
3:53 PM 68.0 °F - 17.1 °F 14% 30.15 in 10.0 mi South 8.1 mph - N/A   Clear
4:53 PM 72.0 °F - 17.1 °F 12% 30.12 in 10.0 mi Variable 3.5 mph - N/A   Clear
5:53 PM 71.1 °F - 19.0 °F 14% 30.11 in 10.0 mi NW 5.8 mph - N/A   Clear
6:53 PM 69.1 °F - 21.0 °F 16% 30.10 in 10.0 mi NNW 5.8 mph - N/A   Clear
7:53 PM 61.0 °F - 21.9 °F 22% 30.09 in 10.0 mi NE 4.6 mph - N/A   Clear
8:53 PM 57.2 °F - 19.4 °F 23% 30.10 in 10.0 mi SW 8.1 mph - N/A   Clear
9:53 PM 52.0 °F - 21.9 °F 31% 30.07 in 10.0 mi WSW 9.2 mph - N/A   Clear
10:53 PM 46.0 °F - 21.9 °F 39% 30.06 in 10.0 mi Calm Calm - N/A   Clear
11:53 PM 44.1 °F 39.5 °F 21.9 °F 42% 30.04 in 10.0 mi NNW 8.1 mph - N/A   Clear